When you browse on this site, cookies collect data to enhance your experience and personalize the content and advertising you see.
Visit our Privacy Policy to learn more. By continuing to use the site, you agree to this use of cookies and data.
  • In Spain
  • List of Countries
  • For 7 days
  • Water Temperature
  • Satellite Maps
  • Weather Map
  • Weather Widgets
  • user-avatar
    Login

    Hourly Weather Wlora

    Today, 19 December, Wednesday

    Time Temperature Precipitation Wind Pressure Humidity
    00:00 +4°C° 0 mm 6 mps 765 mmHg 76%
    01:00 +4°C° 0 mm 6 mps 765 mmHg 74%
    02:00 +4°C° 0 mm 6 mps 765 mmHg 74%
    03:00 +4°C° 0 mm 6 mps 765 mmHg 74%
    04:00 +4°C° 0 mm 6 mps 766 mmHg 73%
    05:00 +4°C° 0 mm 6 mps 766 mmHg 73%
    06:00 +4°C° 0 mm 6 mps 766 mmHg 73%
    07:00 +4°C° 0 mm 6 mps 766 mmHg 72%
    08:00 +5°C° 0 mm 6 mps 766 mmHg 68%
    09:00 +8°C° 0 mm 6 mps 766 mmHg 64%
    10:00 +9°C° 0 mm 6 mps 767 mmHg 59%
    11:00 +10°C° 0 mm 5 mps 767 mmHg 58%
    12:00 +12°C° 0 mm 5 mps 767 mmHg 57%
    13:00 +13°C° 0 mm 5 mps 767 mmHg 55%
    14:00 +12°C° 0 mm 4 mps 767 mmHg 60%
    15:00 +11°C° 0 mm 4 mps 767 mmHg 64%
    16:00 +10°C° 0 mm 4 mps 767 mmHg 69%
    17:00 +9°C° 0 mm 3 mps 767 mmHg 71%
    18:00 +9°C° 0 mm 3 mps 768 mmHg 72%
    19:00 +8°C° 0 mm 2 mps 768 mmHg 74%
    20:00 +8°C° 0 mm 2 mps 768 mmHg 75%
    21:00 +8°C° 0 mm 2 mps 768 mmHg 76%
    22:00 +8°C° 0 mm 2 mps 768 mmHg 77%
    23:00 +7°C° 0 mm 2 mps 768 mmHg 78%

    Tomorrow, 20 December, Thursday

    Time Temperature Precipitation Wind Pressure Humidity
    00:00 +7°C° 0 mm 2 mps 768 mmHg 79%
    01:00 +7°C° 0 mm 2 mps 769 mmHg 80%
    02:00 +7°C° 0 mm 2 mps 768 mmHg 81%
    03:00 +7°C° 0 mm 3 mps 768 mmHg 81%
    04:00 +7°C° 0 mm 3 mps 768 mmHg 81%
    05:00 +6°C° 0 mm 4 mps 768 mmHg 81%
    06:00 +6°C° 0 mm 4 mps 768 mmHg 81%
    07:00 +6°C° 0 mm 5 mps 768 mmHg 81%
    08:00 +7°C° 0 mm 5 mps 769 mmHg 79%
    09:00 +9°C° 0 mm 5 mps 769 mmHg 76%
    10:00 +10°C° 0 mm 5 mps 769 mmHg 73%
    11:00 +12°C° 0 mm 5 mps 769 mmHg 71%
    12:00 +12°C° 0 mm 5 mps 768 mmHg 69%
    13:00 +13°C° 0 mm 6 mps 768 mmHg 67%
    14:00 +11°C° 0 mm 6 mps 768 mmHg 70%
    15:00 +11°C° 0 mm 6 mps 768 mmHg 73%
    16:00 +10°C° 0 mm 6 mps 768 mmHg 76%
    17:00 +10°C° 0 mm 6 mps 768 mmHg 79%
    18:00 +9°C° 0 mm 6 mps 769 mmHg 81%
    19:00 +8°C° 0 mm 7 mps 769 mmHg 83%
    20:00 +8°C° 0 mm 7 mps 769 mmHg 84%
    21:00 +8°C° 0 mm 7 mps 769 mmHg 85%
    22:00 +8°C° 0 mm 7 mps 769 mmHg 85%
    23:00 +8°C° 0.1 mm 7 mps 769 mmHg 84%

    Day after tomorrow, 21 December, Friday

    Time Temperature Precipitation Wind Pressure Humidity
    00:00 +7°C° 0.1 mm 6 mps 769 mmHg 83%
    01:00 +7°C° 0.1 mm 6 mps 769 mmHg 82%
    02:00 +8°C° 0.2 mm 6 mps 769 mmHg 81%
    03:00 +8°C° 0.2 mm 6 mps 769 mmHg 80%
    04:00 +8°C° 0.2 mm 6 mps 769 mmHg 79%
    05:00 +9°C° 0.3 mm 5 mps 769 mmHg 81%
    06:00 +9°C° 0.3 mm 5 mps 769 mmHg 82%
    07:00 +9°C° 0.3 mm 5 mps 769 mmHg 83%
    08:00 +10°C° 0.3 mm 5 mps 770 mmHg 82%
    09:00 +12°C° 0.3 mm 5 mps 770 mmHg 81%
    10:00 +12°C° 0.3 mm 5 mps 770 mmHg 81%
    11:00 +13°C° 0.1 mm 4 mps 770 mmHg 78%
    12:00 +14°C° 0.1 mm 4 mps 770 mmHg 76%
    13:00 +16°C° 0.1 mm 3 mps 769 mmHg 74%
    14:00 +14°C° 0.1 mm 3 mps 769 mmHg 78%
    15:00 +13°C° 0.1 mm 3 mps 769 mmHg 82%
    16:00 +14°C° 0.1 mm 2 mps 770 mmHg 86%
    17:00 +13°C° 0.1 mm 2 mps 770 mmHg 87%
    18:00 +13°C° 0.1 mm 2 mps 770 mmHg 89%
    19:00 +12°C° 0.1 mm 2 mps 770 mmHg 90%
    20:00 +12°C° 0 mm 2 mps 770 mmHg 90%
    21:00 +12°C° 0 mm 2 mps 770 mmHg 91%
    22:00 +12°C° 0 mm 1 mps 770 mmHg 91%
    23:00 +12°C° 0 mm 1 mps 770 mmHg 91%

    22 December, Saturday

    Time Temperature Precipitation Wind Pressure Humidity
    00:00 +11°C° 0 mm 1 mps 770 mmHg 91%
    01:00 +11°C° 0 mm 1 mps 770 mmHg 91%
    02:00 +11°C° 0 mm 1 mps 770 mmHg 91%
    03:00 +11°C° 0 mm 1 mps 770 mmHg 91%
    04:00 +11°C° 0 mm 1 mps 769 mmHg 90%
    05:00 +11°C° 0 mm 1 mps 769 mmHg 90%
    06:00 +11°C° 0 mm 1 mps 769 mmHg 89%
    07:00 +11°C° 0 mm 1 mps 769 mmHg 88%
    08:00 +12°C° 0 mm 1 mps 769 mmHg 84%
    09:00 +13°C° 0 mm 1 mps 770 mmHg 81%
    10:00 +14°C° 0 mm 1 mps 770 mmHg 77%
    11:00 +14°C° 0 mm 2 mps 769 mmHg 74%
    12:00 +15°C° 0 mm 2 mps 769 mmHg 71%
    13:00 +15°C° 0 mm 2 mps 768 mmHg 68%
    14:00 +15°C° 0 mm 2 mps 768 mmHg 72%
    15:00 +14°C° 0 mm 2 mps 768 mmHg 75%
    16:00 +14°C° 0 mm 1 mps 768 mmHg 78%
    17:00 +13°C° 0 mm 1 mps 768 mmHg 80%
    18:00 +12°C° 0 mm 1 mps 768 mmHg 83%
    19:00 +12°C° 0 mm 1 mps 768 mmHg 85%
    20:00 +11°C° 0 mm 1 mps 768 mmHg 86%
    21:00 +11°C° 0 mm 1 mps 768 mmHg 86%
    22:00 +11°C° 0 mm 1 mps 768 mmHg 86%
    23:00 +11°C° 0 mm 1 mps 768 mmHg 86%

    23 December, Sunday

    Time Temperature Precipitation Wind Pressure Humidity
    00:00 +11°C° 0 mm 1 mps 768 mmHg 86%
    01:00 +10°C° 0 mm 1 mps 768 mmHg 86%
    02:00 +10°C° 0 mm 1 mps 768 mmHg 86%
    03:00 +10°C° 0 mm 1 mps 768 mmHg 86%
    04:00 +10°C° 0 mm 1 mps 767 mmHg 85%
    05:00 +10°C° 0 mm 1 mps 768 mmHg 85%
    06:00 +10°C° 0 mm 1 mps 768 mmHg 84%
    07:00 +10°C° 0 mm 1 mps 768 mmHg 83%
    08:00 +11°C° 0 mm 1 mps 768 mmHg 78%
    09:00 +13°C° 0 mm 1 mps 768 mmHg 73%
    10:00 +15°C° 0 mm 1 mps 769 mmHg 68%
    11:00 +15°C° 0 mm 1 mps 768 mmHg 66%
    12:00 +16°C° 0 mm 1 mps 768 mmHg 65%
    13:00 +18°C° 0 mm 1 mps 767 mmHg 63%
    14:00 +16°C° 0 mm 1 mps 767 mmHg 67%
    15:00 +15°C° 0 mm 1 mps 767 mmHg 71%
    16:00 +14°C° 0 mm 2 mps 767 mmHg 75%
    17:00 +14°C° 0 mm 1 mps 768 mmHg 77%
    18:00 +13°C° 0 mm 1 mps 768 mmHg 78%
    19:00 +12°C° 0 mm 1 mps 768 mmHg 79%
    20:00 +12°C° 0 mm 1 mps 768 mmHg 78%
    21:00 +12°C° 0 mm 1 mps 768 mmHg 77%
    22:00 +12°C° 0 mm 1 mps 768 mmHg 77%
    23:00 +12°C° 0 mm 1 mps 768 mmHg 76%

    24 December, Monday

    Time Temperature Precipitation Wind Pressure Humidity
    00:00 +12°C° 0 mm 1 mps 768 mmHg 76%
    01:00 +12°C° 0 mm 1 mps 768 mmHg 76%
    02:00 +11°C° 0 mm 1 mps 768 mmHg 77%
    03:00 +11°C° 0 mm 1 mps 768 mmHg 77%
    04:00 +11°C° 0 mm 1 mps 767 mmHg 78%
    05:00 +11°C° 0 mm 1 mps 767 mmHg 78%
    06:00 +11°C° 0 mm 1 mps 768 mmHg 78%
    07:00 +11°C° 0 mm 1 mps 768 mmHg 78%
    08:00 +12°C° 0 mm 1 mps 768 mmHg 74%
    09:00 +14°C° 0 mm 1 mps 767 mmHg 70%
    10:00 +15°C° 0 mm 1 mps 767 mmHg 66%
    11:00 +16°C° 0 mm 1 mps 767 mmHg 66%
    12:00 +16°C° 0 mm 1 mps 766 mmHg 67%
    13:00 +18°C° 0 mm 1 mps 766 mmHg 67%
    14:00 +16°C° 0 mm 1 mps 766 mmHg 72%
    15:00 +15°C° 0 mm 1 mps 765 mmHg 76%
    16:00 +15°C° 0 mm 1 mps 765 mmHg 81%
    17:00 +14°C° 0 mm 1 mps 765 mmHg 83%
    18:00 +14°C° 0 mm 1 mps 765 mmHg 85%
    19:00 +13°C° 0 mm 1 mps 765 mmHg 87%
    20:00 +13°C° 0 mm 1 mps 766 mmHg 87%
    21:00 +12°C° 0 mm 1 mps 766 mmHg 86%
    22:00 +12°C° 0 mm 1 mps 766 mmHg 86%
    23:00 +12°C° 0 mm 2 mps 766 mmHg 86%
    Show more